CW4438 Weather Reports


Display with metric or nautical units.
time (UTC)temp
F
wind
direction
speed
MPH
gust
MPH
rain 1hr
in
rain 24hr
in
rain mn
in
humidity
%
barometer
mb
20260503213930 81 191 3.0 10.0 0.00 0.00 0.00 41 1013.3
20260503213430 80 231 2.0 5.0 0.00 0.00 0.00 42 1013.4
20260503212931 80 285 3.0 7.0 0.00 0.00 0.00 40 1013.5
20260503212429 80 339 3.0 7.0 0.00 0.00 0.00 41 1013.6
20260503211929 80 196 3.0 13.0 0.00 0.00 0.00 40 1013.6
20260503211430 80 194 3.0 13.0 0.00 0.00 0.00 43 1013.8
20260503210929 80 220 3.0 9.0 0.00 0.00 0.00 40 1013.9
20260503210429 80 288 3.0 8.0 0.00 0.00 0.00 40 1014.0
20260503205929 80 113 3.0 9.0 0.00 0.00 0.00 42 1014.1
20260503205429 80 91 4.0 13.0 0.00 0.00 0.00 45 1014.2
20260503204928 80 233 4.0 13.0 0.00 0.00 0.00 39 1014.3
20260503204429 80 195 4.0 9.0 0.00 0.00 0.00 43 1014.3
20260503203928 80 176 3.0 8.0 0.00 0.00 0.00 44 1014.4
20260503203429 80 192 4.0 8.0 0.00 0.00 0.00 44 1014.7
20260503202930 79 329 4.0 10.0 0.00 0.00 0.00 43 1014.8
20260503202429 79 132 4.0 10.0 0.00 0.00 0.00 40 1014.7
20260503201929 80 211 4.0 10.0 0.00 0.00 0.00 40 1014.8
20260503201429 80 246 4.0 10.0 0.00 0.00 0.00 44 1014.9
20260503200930 79 139 4.0 10.0 0.00 0.00 0.00 45 1015.0
20260503200430 79 209 3.0 8.0 0.00 0.00 0.00 44 1015.1
20260503195431 79 202 3.0 9.0 0.00 0.00 0.00 44 1015.2
20260503194931 79 136 3.0 9.0 0.00 0.00 0.00 45 1015.2
20260503194430 79 144 4.0 9.0 0.00 0.00 0.00 49 1015.2
20260503193930 78 161 4.0 11.0 0.00 0.00 0.00 42 1015.4
20260503193431 78 164 4.0 11.0 0.00 0.00 0.00 41 1015.5
20260503192929 79 111 3.0 10.0 0.00 0.00 0.00 44 1015.5
20260503192430 78 187 3.0 8.0 0.00 0.00 0.00 45 1015.6
20260503191929 78 134 3.0 8.0 0.00 0.00 0.00 47 1015.7
20260503190928 78 119 4.0 8.0 0.00 0.00 0.00 47 1015.8
20260503190430 78 154 4.0 8.0 0.00 0.00 0.00 49 1015.9
20260503185430 78 148 3.0 10.0 0.00 0.00 0.00 43 1015.9
20260503184429 78 194 3.0 11.0 0.00 0.00 0.00 43 1015.9
20260503183429 78 140 3.0 7.0 0.00 0.00 0.00 45 1016.0
20260503181929 76 219 4.0 9.0 0.00 0.00 0.00 46 1016.3
20260503181430 76 166 3.0 9.0 0.00 0.00 0.00 46 1016.5
20260503180430 76 192 3.0 8.0 0.00 0.00 0.00 45 1016.7
20260503175929 76 141 3.0 8.0 0.00 0.00 0.00 49 1016.7
20260503175430 76 154 4.0 9.0 0.00 0.00 0.00 47 1016.9
20260503174929 76 132 4.0 9.0 0.00 0.00 0.00 45 1016.9
20260503173929 75 99 4.0 8.0 0.00 0.00 0.00 46 1017.0
20260503173429 75 146 3.0 8.0 0.00 0.00 0.00 46 1017.0
20260503172929 75 154 4.0 9.0 0.00 0.00 0.00 49 1017.1
20260503172429 75 154 4.0 9.0 0.00 0.00 0.00 49 1017.0
20260503171928 75 9 4.0 9.0 0.00 0.00 0.00 47 1017.0
20260503171429 74 150 4.0 11.0 0.00 0.00 0.00 49 1017.0
20260503170929 74 159 4.0 11.0 0.00 0.00 0.00 45 1017.0
20260503170430 74 158 4.0 11.0 0.00 0.00 0.00 45 1017.0
20260503150907 66 21 3.0 7.0 0.00 0.00 0.00 51 1018.6
20260503150408 66 19 3.0 7.0 0.00 0.00 0.00 52 1018.7
20260503131341 49 126 2.0 5.0 0.00 0.00 0.00 78 1019.2
20260503130840 47 193 1.0 3.0 0.00 0.00 0.00 83 1019.3
20260503130339 46 269 1.0 4.0 0.00 0.00 0.00 86 1019.2
20260503110321 40 90 1.0 2.0 0.00 0.00 0.00 91 1018.6
20260503090248 41 89 1.0 2.0 0.00 0.00 0.00 91 1019.0
20260503081229 41 89 0.0 1.0 0.00 0.00 0.00 92 1019.3
20260503080729 41 89 0.0 1.0 0.00 0.00 0.00 91 1019.4
20260503080230 41 89 0.0 1.0 0.00 0.00 0.00 91 1019.3
20260503072229 41 89 0.0 1.0 0.00 0.00 0.00 90 1019.7
20260503071729 41 89 0.0 1.0 0.00 0.00 0.00 90 1019.7
20260503071229 41 89 0.0 1.0 0.00 0.00 0.00 89 1019.8
20260503070729 41 89 0.0 0.0 0.00 0.00 0.00 89 1019.8
20260503070229 41 90 0.0 1.0 0.00 0.00 0.00 89 1019.9
20260503060223 42 90 0.0 0.0 0.00 0.00 0.00 85 1020.3
20260503054217 42 90 0.0 0.0 0.00 0.00 0.00 84 1020.3
20260503053715 43 90 0.0 0.0 0.00 0.00 0.00 83 1020.3
20260503053215 43 90 0.0 0.0 0.00 0.00 0.00 83 1020.3
20260503052721 43 90 0.0 0.0 0.00 0.00 0.00 84 1020.4
20260503052220 43 90 0.0 0.0 0.00 0.00 0.00 84 1020.3
20260503051718 43 90 0.0 1.0 0.00 0.00 0.00 84 1020.3
20260503050714 44 90 0.0 0.0 0.00 0.00 0.00 82 1020.2
20260503050212 44 90 0.0 0.0 0.00 0.00 0.00 83 1020.2
20260503045709 44 90 0.0 0.0 0.00 0.00 0.00 83 1020.2
20260503044708 44 90 0.0 0.0 0.00 0.00 0.00 84 1020.3
20260503044205 44 90 0.0 0.0 0.00 0.00 0.00 83 1020.2
20260503043703 45 90 0.0 0.0 0.00 0.00 0.00 82 1020.3
20260503043202 45 90 0.0 0.0 0.00 0.00 0.00 80 1020.2
20260503042202 45 90 0.0 1.0 0.00 0.00 0.00 81 1020.2
20260503041701 45 90 0.0 1.0 0.00 0.00 0.00 80 1020.2
20260503041202 45 90 0.0 1.0 0.00 0.00 0.00 80 1020.1
20260503040202 46 90 0.0 0.0 0.00 0.00 0.00 77 1020.2
20260503035703 46 90 0.0 0.0 0.00 0.00 0.00 76 1020.1
20260503035202 46 90 0.0 0.0 0.00 0.00 0.00 76 1020.1
20260503034703 47 90 0.0 1.0 0.00 0.00 0.00 77 1020.2
20260503034203 47 90 0.0 1.0 0.00 0.00 0.00 77 1020.2
20260503033702 47 90 0.0 1.0 0.00 0.00 0.00 75 1020.3
20260503033202 47 90 0.0 1.0 0.00 0.00 0.00 74 1020.2
20260503032703 47 90 0.0 1.0 0.00 0.00 0.00 73 1020.2
20260503032203 47 90 0.0 1.0 0.00 0.00 0.00 74 1020.2
20260503031702 48 90 0.0 1.0 0.00 0.00 0.00 72 1020.2
20260503031201 48 90 0.0 1.0 0.00 0.00 0.00 71 1020.1
20260503030702 49 90 0.0 1.0 0.00 0.00 0.00 69 1020.1
20260503030202 49 90 0.0 1.0 0.00 0.00 0.00 69 1020.0
20260503025702 49 90 0.0 1.0 0.00 0.00 0.00 68 1019.9
20260503025201 49 90 0.0 1.0 0.00 0.00 0.00 69 1019.9
20260503024701 50 90 0.0 0.0 0.00 0.00 0.00 68 1019.9
20260503023702 50 90 0.0 0.0 0.00 0.00 0.00 65 1019.8
20260503022701 51 90 0.0 0.0 0.00 0.00 0.00 64 1019.8
20260503022201 51 90 0.0 0.0 0.00 0.00 0.00 64 1019.7
20260503021703 52 90 0.0 0.0 0.00 0.00 0.00 65 1019.7
20260503021203 52 90 0.0 0.0 0.00 0.00 0.00 63 1019.6
20260503020703 53 90 0.0 0.0 0.00 0.00 0.00 63 1019.6
20260503020201 53 90 0.0 1.0 0.00 0.00 0.00 63 1019.4
20260503015701 53 89 0.0 1.0 0.00 0.00 0.00 60 1019.4
20260503014701 55 90 0.0 1.0 0.00 0.00 0.00 58 1019.4
20260503014201 55 90 0.0 0.0 0.00 0.00 0.00 56 1019.3
20260503013701 56 89 0.0 0.0 0.00 0.00 0.00 56 1019.3
20260503013201 56 90 0.0 0.0 0.00 0.00 0.00 56 1019.3
20260503012702 56 90 0.0 0.0 0.00 0.00 0.00 50 1019.2
20260503012201 57 90 0.0 0.0 0.00 0.00 0.00 53 1019.2
20260503011701 58 90 0.0 0.0 0.00 0.00 0.00 50 1019.0
20260503010703 58 90 0.0 0.0 0.00 0.00 0.00 51 1018.9
20260503010202 59 90 0.0 0.0 0.00 0.00 0.00 53 1018.9
20260503005703 59 90 0.0 0.0 0.00 0.00 0.00 47 1018.9
20260503005202 59 90 0.0 0.0 0.00 0.00 0.00 45 1018.9
20260503004657 60 90 0.0 1.0 0.00 0.00 0.00 43 1019.0
20260503004150 60 90 0.0 1.0 0.00 0.00 0.00 45 1018.9
20260503003648 60 90 0.0 1.0 0.00 0.00 0.00 45 1018.9
20260503003148 61 90 0.0 2.0 0.00 0.00 0.00 42 1018.9
20260503002648 61 85 0.0 3.0 0.00 0.00 0.00 41 1018.9
20260503002146 61 51 0.0 3.0 0.00 0.00 0.00 41 1018.9
20260503001147 62 13 1.0 3.0 0.00 0.00 0.00 40 1018.9
20260503000146 62 28 0.0 2.0 0.00 0.00 0.00 41 1018.9
20260502235643 63 20 1.0 2.0 0.00 0.00 0.00 41 1018.9
20260502235144 63 40 1.0 4.0 0.00 0.00 0.00 41 1018.9
20260502234638 63 44 1.0 4.0 0.00 0.00 0.00 41 1018.9
20260502234130 63 13 1.0 3.0 0.00 0.00 0.00 43 1018.9
20260502233129 63 59 1.0 7.0 0.00 0.00 0.00 38 1018.8
20260502232630 64 24 1.0 7.0 0.00 0.00 0.00 39 1018.9
20260502232129 64 64 1.0 4.0 0.00 0.00 0.00 38 1019.0
20260502231629 64 13 1.0 3.0 0.00 0.00 0.00 38 1019.0
20260502230630 64 38 2.0 4.0 0.00 0.00 0.00 34 1019.2
20260502230130 65 44 2.0 7.0 0.00 0.00 0.00 41 1019.0
20260502225626 65 82 1.0 7.0 0.00 0.00 0.00 40 1019.0
20260502224624 65 173 1.0 5.0 0.00 0.00 0.00 36 1018.9
20260502224124 65 82 2.0 5.0 0.00 0.00 0.00 37 1018.9
20260502223622 66 159 2.0 5.0 0.00 0.00 0.00 38 1019.0
20260502223122 66 24 1.0 5.0 0.00 0.00 0.00 37 1019.0
20260502222622 67 128 2.0 8.0 0.00 0.00 0.00 34 1019.0
20260502222122 67 180 2.0 8.0 0.00 0.00 0.00 38 1019.0
20260502221622 68 21 2.0 7.0 0.00 0.00 0.00 35 1019.0
20260502221118 69 0 2.0 5.0 0.00 0.00 0.00 38 1018.9
20260502220617 69 123 2.0 5.0 0.00 0.00 0.00 34 1018.9
20260502220117 69 192 1.0 5.0 0.00 0.00 0.00 31 1019.0
20260502215615 69 74 1.0 5.0 0.00 0.00 0.00 34 1019.2
20260502214616 69 93 2.0 5.0 0.00 0.00 0.00 35 1019.0
20260502214116 69 26 2.0 5.0 0.00 0.00 0.00 36 1019.2